Wind_Speed
13 13 13 13 12 12 12 12 11 10 9 8 7 7 6 6 5 4 4 3 3 2 2 1 1 1 2 2 3 4 5 5 6 7 7 7 8 8 9 10 10 10 11
15 14 14 14 13 13 13 13 13 12 11 10 9 9 8 7 6 6 6 5 4 3 3 3 3 3 3 4 4 5 6 7 7 8 8 8 9 9 10 11 11 12 12
17 16 16 15 15 14 14 15 14 14 13 12 12 11 10 9 8 7 7 7 6 5 5 5 5 5 5 5 6 6 7 8 9 9 9 9 10 11 12 12 12 13 13
19 18 18 17 17 16 16 16 16 16 15 15 14 13 12 11 11 10 9 8 8 7 7 7 7 6 7 7 7 7 8 9 10 11 11 11 11 12 13 13 13 13 14
20 20 19 19 19 18 17 17 17 17 17 16 16 15 14 13 12 11 11 10 10 9 9 9 9 8 8 8 9 9 10 11 11 12 12 12 13 13 14 14 15 15 15
21 21 21 21 20 20 19 18 18 18 18 18 17 16 15 14 13 13 12 12 11 11 11 11 10 10 10 10 10 11 11 12 13 13 13 14 14 15 15 16 17 17 17
23 22 22 22 22 22 21 20 20 20 20 20 19 18 17 16 15 14 14 13 13 13 12 12 12 12 12 12 12 13 13 13 14 14 15 16 16 17 18 18 18 18 19
25 24 24 24 24 23 23 23 22 22 21 21 21 21 20 19 17 17 16 16 15 15 15 14 14 13 13 14 14 15 15 15 15 16 17 17 18 19 19 19 19 19 20
27 26 25 26 26 25 25 25 24 24 24 24 23 23 22 21 20 19 18 18 18 17 17 16 16 16 15 15 15 16 16 17 17 18 18 19 19 20 20 21 21 21 21
29 28 27 27 27 28 28 27 27 26 26 26 26 25 25 24 23 22 21 21 20 20 19 19 18 18 17 17 17 17 17 17 18 19 20 20 20 21 22 22 22 22 22
31 30 29 29 29 29 29 29 29 29 28 27 27 27 27 27 26 25 24 23 23 22 22 21 20 20 20 20 20 19 19 19 19 20 21 21 22 22 23 23 23 24 24
32 31 30 30 30 30 30 31 30 30 30 29 28 28 28 28 28 28 27 26 25 25 24 24 22 22 22 21 21 21 21 21 21 22 23 23 23 24 24 24 25 25 25
33 32 31 31 31 31 31 32 32 32 31 31 30 29 29 29 30 30 30 29 28 27 27 26 25 25 24 24 23 23 23 23 23 24 24 24 25 25 26 26 26 26 26
34 34 34 32 32 32 32 33 33 33 33 32 31 31 31 30 30 31 31 31 31 30 30 29 28 28 27 27 26 26 26 26 26 26 26 26 27 27 27 28 28 27 28
36 35 35 34 33 33 34 34 34 33 33 32 32 32 33 32 31 31 31 32 31 31 31 31 31 30 30 29 29 28 28 28 28 29 29 29 29 29 29 29 29 29 29
37 37 37 36 36 35 34 34 34 34 34 33 34 34 34 33 32 32 31 31 31 32 32 32 32 32 32 32 32 32 31 31 30 30 30 31 30 30 30 30 31 31 31
39 38 38 37 37 36 36 36 36 36 36 35 35 35 35 35 34 32 33 33 32 32 32 32 33 34 34 34 34 34 34 34 33 33 33 33 32 32 32 32 33 33 33
40 39 38 38 38 37 37 37 37 38 38 37 36 36 36 36 35 35 35 35 34 34 34 34 33 34 34 35 35 35 35 35 35 35 35 35 34 34 34 33 34 34 34
41 41 40 39 39 39 38 37 38 39 40 39 38 38 38 39 37 37 36 36 37 36 36 36 35 35 35 36 36 36 37 37 37 37 37 37 36 35 35 34 34 35 35
42 42 42 41 40 40 40 39 39 40 40 40 39 39 39 39 39 38 38 38 38 37 37 37 36 37 37 37 38 39 39 38 38 38 38 38 38 37 37 36 36 36 36
43 43 44 44 42 41 40 40 41 42 42 41 41 40 41 41 40 38 39 39 39 38 38 38 38 38 38 39 39 39 39 38 38 38 38 38 38 38 38 38 38 38 38
44 44 44 44 44 44 43 43 43 44 44 43 43 42 42 41 41 41 41 41 41 41 41 40 40 40 41 41 41 41 40 39 38 38 38 38 38 38 38 39 39 39 40
45 45 44 44 43 44 44 45 46 46 46 46 46 45 44 43 42 41 42 42 42 43 43 43 43 43 42 42 41 41 41 40 38 38 38 39 39 39 38 38 39 40 40
47 46 45 45 45 45 45 44 45 46 46 47 47 47 46 45 44 44 43 43 43 43 43 43 43 43 43 42 41 41 41 41 40 39 40 40 40 40 40 40 40 40 40
46 47 47 46 46 46 46 46 45 46 47 48 48 48 48 47 46 46 45 44 43 43 44 44 43 43 43 42 41 40 40 40 40 40 40 41 41 41 41 41 41 40 40
45 46 47 47 48 47 47 46 46 47 48 48 46 46 47 47 46 46 47 46 44 44 43 44 43 43 43 43 43 41 40 40 40 41 41 41 41 41 41 41 41 41 41
Wind_Direction
238 236 235 234 235 233 232 232 232 233 232 230 226 225 225 225 226 226 229 229 231 224 234 251 270 290 302 310 322 328 331 329 328 330 330 329 327 326 325 324 321 319 318
239 238 238 237 237 236 235 236 235 236 236 233 231 230 229 230 229 229 233 233 233 239 248 255 263 270 293 300 310 321 325 323 322 324 325 326 325 323 322 322 320 318 317
240 239 239 240 239 239 239 239 239 238 238 237 235 234 233 233 232 231 234 234 235 242 250 256 262 268 279 291 299 312 318 320 319 318 318 320 319 318 317 316 317 316 314
240 240 240 242 242 242 242 241 241 241 240 239 237 237 236 236 235 233 235 237 237 242 249 255 260 268 276 281 289 301 308 312 313 313 314 315 315 314 314 313 313 313 312
241 241 240 241 243 243 244 243 241 242 242 241 239 238 237 237 238 236 238 240 241 243 248 254 259 264 272 277 283 290 297 302 306 308 309 311 312 312 312 311 311 310 310
240 242 241 241 242 243 244 244 243 243 243 243 242 239 239 238 239 240 240 241 244 247 251 256 260 264 269 274 279 285 291 296 300 303 306 307 309 308 309 309 308 308 308
238 240 242 241 242 243 243 244 245 245 244 244 243 242 241 240 241 243 244 245 247 249 255 260 263 265 270 274 278 283 287 292 296 300 302 304 305 305 304 306 307 307 307
239 241 243 243 243 243 244 244 245 245 245 246 245 245 243 243 243 244 246 248 250 251 255 261 264 266 271 276 280 283 286 288 293 296 299 300 302 303 303 304 306 306 305
240 242 244 245 243 244 245 245 245 245 245 246 245 245 244 243 245 246 247 249 251 253 254 258 264 267 271 276 280 283 285 287 291 294 296 297 299 301 302 303 304 305 304
241 242 244 245 245 244 244 245 245 246 246 246 246 245 245 244 246 246 247 249 252 255 256 258 262 266 270 274 278 281 284 287 290 291 292 294 296 298 300 302 303 303 303
241 242 244 245 245 245 245 246 245 245 247 247 247 248 247 247 247 248 249 250 252 255 256 258 261 265 269 271 275 279 282 286 289 291 291 291 294 297 299 299 301 301 301
240 242 244 245 246 246 246 246 246 245 247 248 249 250 250 250 250 250 251 251 253 255 256 259 261 264 267 271 274 276 280 282 286 288 290 291 293 295 297 298 299 300 300
239 242 244 245 246 247 247 246 245 245 246 247 249 251 251 251 252 252 253 253 254 255 257 259 262 263 266 269 272 275 277 279 282 285 288 290 292 294 295 297 298 299 300
239 240 242 243 246 247 248 246 244 245 246 247 249 251 251 252 253 253 253 253 254 255 258 260 261 263 265 268 271 273 276 278 280 282 285 288 290 291 293 295 297 297 298
240 241 242 243 245 247 248 248 245 245 246 248 250 250 251 251 252 254 254 255 256 256 257 259 261 264 266 268 270 272 274 277 279 281 282 284 288 290 293 294 295 296 297
241 241 242 243 245 247 248 248 247 245 246 248 250 251 250 251 252 253 255 256 257 258 259 260 262 264 266 269 270 272 273 276 277 279 282 284 286 289 291 292 293 295 295
241 242 242 243 246 247 248 249 248 246 247 248 250 250 250 251 254 254 255 256 257 258 260 261 263 264 266 269 271 272 274 276 278 280 281 283 285 286 288 290 291 292 294
241 242 242 242 245 247 248 248 249 248 247 248 251 252 251 252 255 256 256 256 257 259 260 263 264 265 267 270 271 272 273 275 277 279 280 281 283 284 285 287 289 290 293
242 242 243 245 246 247 249 250 250 250 248 249 251 252 253 254 256 256 256 257 258 260 261 263 264 266 268 269 271 272 274 276 276 277 278 280 281 283 284 286 289 290 292
243 243 243 245 247 248 249 250 250 249 249 250 251 253 254 255 256 257 256 257 260 261 262 263 265 267 269 270 272 273 275 276 277 277 277 278 279 281 283 284 288 290 291
243 243 244 245 246 248 250 251 251 250 250 251 251 253 255 256 257 256 256 258 258 260 263 264 266 267 269 272 273 274 275 276 277 278 278 279 279 279 281 283 286 288 290
243 244 246 246 248 249 251 253 252 250 250 250 251 253 256 257 258 258 259 259 259 260 263 265 267 268 270 272 273 273 274 274 276 278 278 278 279 280 281 282 284 287 289
243 244 245 247 249 250 250 252 252 250 249 249 251 253 255 257 258 259 259 260 262 262 263 265 267 269 270 271 271 272 273 274 274 275 277 278 279 279 280 282 283 286 288
243 244 246 248 249 251 251 252 252 251 250 250 251 253 255 256 258 260 261 262 263 265 266 266 267 269 270 270 270 273 274 275 275 275 276 277 278 279 280 282 282 284 287
244 246 247 248 250 251 252 252 252 251 250 250 251 252 254 257 258 260 260 261 262 264 266 266 267 268 269 270 270 272 273 274 275 276 276 277 277 279 280 280 281 283 286
245 246 247 249 250 252 253 252 251 251 250 251 253 254 255 255 257 259 259 259 261 264 265 266 266 267 268 269 270 271 273 275 275 276 277 276 275 277 278 279 281 283 285
Height
5857 5857 5858 5858 5859 5860 5860 5861 5861 5862 5862 5862 5862 5863 5863 5863 5863 5863 5863 5863 5862 5862 5862 5861 5861 5860 5860 5859 5859 5858 5857 5857 5856 5855 5854 5853 5852 5850 5849 5848 5847 5846 5844
5854 5855 5855 5856 5857 5858 5858 5859 5859 5860 5860 5861 5861 5861 5861 5861 5861 5861 5861 5861 5861 5861 5861 5861 5860 5859 5859 5858 5858 5857 5856 5856 5855 5854 5853 5852 5850 5849 5848 5847 5845 5844 5842
5851 5852 5853 5854 5854 5855 5856 5856 5857 5857 5858 5859 5859 5859 5859 5860 5860 5860 5860 5860 5860 5860 5860 5859 5859 5858 5858 5857 5856 5856 5855 5854 5854 5853 5851 5850 5849 5847 5846 5845 5843 5842 5840
5847 5848 5850 5851 5852 5852 5853 5854 5854 5855 5855 5856 5857 5857 5857 5857 5858 5858 5858 5858 5858 5858 5858 5858 5857 5857 5856 5856 5855 5854 5854 5853 5852 5851 5850 5848 5847 5846 5844 5843 5841 5840 5838
5844 5845 5846 5847 5848 5849 5850 5850 5851 5852 5853 5853 5854 5854 5855 5855 5855 5856 5856 5856 5856 5856 5856 5856 5855 5855 5854 5854 5853 5853 5852 5851 5850 5849 5848 5846 5845 5843 5842 5840 5839 5837 5836
5840 5841 5842 5843 5844 5845 5846 5847 5848 5848 5849 5850 5851 5851 5852 5853 5853 5853 5854 5854 5854 5854 5854 5854 5853 5853 5852 5852 5851 5850 5849 5849 5847 5846 5845 5844 5843 5841 5840 5838 5836 5834 5833
5835 5836 5838 5839 5840 5842 5843 5843 5844 5844 5845 5846 5847 5848 5849 5850 5850 5850 5851 5851 5851 5852 5851 5851 5851 5850 5850 5849 5848 5848 5847 5846 5845 5844 5842 5841 5840 5838 5837 5835 5833 5831 5829
5830 5831 5833 5834 5835 5837 5838 5839 5840 5840 5841 5842 5843 5844 5846 5846 5847 5847 5847 5848 5848 5849 5849 5848 5848 5847 5847 5846 5846 5845 5844 5843 5842 5841 5839 5838 5837 5835 5833 5831 5829 5827 5825
5824 5826 5828 5829 5830 5832 5833 5834 5835 5836 5837 5838 5839 5840 5841 5842 5843 5843 5844 5844 5844 5845 5845 5845 5844 5844 5843 5843 5842 5841 5840 5839 5838 5837 5836 5834 5833 5831 5829 5827 5825 5823 5821
5818 5820 5822 5823 5825 5826 5827 5828 5830 5831 5832 5833 5834 5835 5837 5838 5838 5839 5839 5840 5840 5841 5841 5841 5841 5840 5840 5839 5839 5838 5837 5836 5834 5833 5832 5830 5829 5827 5825 5823 5821 5819 5817
5812 5814 5816 5817 5818 5820 5821 5822 5823 5825 5826 5827 5829 5830 5831 5832 5833 5834 5835 5835 5836 5836 5836 5836 5836 5836 5836 5835 5835 5834 5833 5832 5830 5829 5827 5826 5824 5822 5821 5819 5817 5814 5812
5806 5808 5809 5811 5812 5814 5815 5816 5817 5818 5820 5822 5823 5825 5826 5827 5828 5829 5830 5830 5831 5831 5831 5831 5831 5831 5831 5831 5830 5829 5828 5827 5826 5824 5823 5821 5819 5818 5816 5814 5812 5810 5807
5799 5802 5803 5804 5806 5807 5808 5809 5810 5812 5814 5815 5817 5819 5820 5821 5822 5823 5824 5824 5825 5825 5826 5826 5826 5826 5826 5826 5825 5824 5823 5822 5821 5819 5818 5816 5814 5813 5811 5809 5807 5804 5802
5792 5795 5796 5798 5799 5800 5801 5802 5803 5805 5807 5809 5810 5812 5813 5814 5815 5816 5817 5818 5819 5819 5820 5820 5820 5820 5820 5820 5820 5819 5818 5817 5815 5814 5812 5810 5809 5807 5805 5803 5801 5799 5796
5785 5787 5789 5790 5792 5793 5794 5795 5796 5798 5800 5802 5804 5805 5806 5807 5809 5809 5810 5811 5812 5813 5813 5814 5814 5814 5814 5814 5813 5813 5812 5811 5809 5808 5806 5805 5803 5801 5799 5797 5795 5793 5790
5777 5779 5781 5783 5784 5785 5787 5788 5789 5791 5793 5795 5797 5798 5799 5801 5802 5802 5803 5804 5805 5806 5806 5807 5807 5807 5807 5807 5807 5806 5805 5804 5803 5801 5800 5798 5797 5795 5793 5791 5788 5786 5783
5768 5771 5773 5775 5777 5778 5780 5781 5782 5784 5786 5788 5789 5791 5792 5793 5794 5795 5796 5797 5798 5798 5799 5799 5800 5800 5800 5799 5799 5799 5798 5797 5796 5794 5793 5791 5790 5788 5786 5784 5781 5779 5776
5759 5762 5765 5767 5769 5770 5772 5773 5774 5776 5778 5780 5782 5783 5784 5786 5787 5788 5789 5789 5790 5791 5791 5792 5792 5792 5792 5791 5791 5790 5789 5789 5788 5786 5785 5783 5782 5781 5779 5776 5774 5772 5769
5750 5753 5756 5758 5760 5762 5763 5765 5766 5768 5770 5771 5773 5775 5777 5778 5779 5780 5781 5782 5782 5783 5783 5784 5784 5784 5783 5782 5782 5781 5781 5780 5778 5777 5776 5775 5774 5772 5770 5768 5766 5763 5761
5741 5744 5746 5749 5751 5753 5755 5756 5758 5759 5761 5763 5765 5767 5768 5769 5770 5772 5773 5773 5774 5774 5775 5775 5775 5775 5774 5773 5772 5771 5771 5770 5768 5767 5766 5765 5764 5763 5761 5760 5757 5755 5753
5731 5734 5737 5739 5742 5744 5746 5748 5749 5751 5753 5754 5756 5758 5759 5761 5762 5763 5764 5764 5765 5766 5766 5766 5766 5766 5765 5764 5762 5761 5760 5760 5759 5757 5756 5755 5754 5753 5752 5750 5749 5747 5744
5721 5724 5727 5730 5732 5735 5737 5739 5740 5742 5744 5745 5747 5749 5750 5751 5753 5754 5755 5755 5756 5757 5757 5757 5757 5756 5756 5754 5753 5751 5751 5752 5750 5749 5747 5746 5744 5743 5743 5741 5740 5737 5735
5710 5714 5717 5720 5722 5724 5727 5728 5730 5732 5734 5736 5738 5739 5740 5741 5743 5744 5745 5746 5747 5747 5748 5748 5747 5747 5746 5745 5743 5742 5742 5742 5741 5740 5738 5737 5735 5734 5733 5731 5730 5728 5725
5698 5702 5706 5709 5712 5714 5716 5718 5720 5722 5724 5726 5728 5729 5730 5732 5733 5735 5736 5736 5737 5737 5737 5737 5737 5737 5736 5735 5734 5733 5732 5731 5731 5730 5729 5727 5726 5724 5723 5721 5720 5718 5716
5687 5691 5695 5698 5700 5703 5705 5707 5709 5711 5714 5715 5717 5718 5720 5721 5723 5724 5726 5726 5727 5727 5727 5727 5726 5726 5726 5725 5725 5724 5723 5722 5721 5720 5720 5718 5716 5715 5713 5712 5710 5708 5706
5674 5678 5683 5686 5689 5691 5693 5695 5697 5700 5702 5704 5706 5707 5709 5711 5712 5713 5714 5715 5716 5716 5717 5716 5716 5716 5715 5715 5715 5714 5714 5713 5712 5710 5709 5708 5706 5705 5704 5702 5701 5699 5697